GEESAT 3-08

导读 | 星芒AI

GEESAT 3-08 是一颗地球观测卫星,主要用于环境监测和地理信息数据采集。该卫星具备高分辨率成像能力,可支持气象预报、资源管理和灾害预警等多种应用。其先进传感器能够获取多光谱和热红外数据,提升遥感分析的精度。GEESAT 3-08 的发射增强了国家在空间技术和地球观测领域的自主能力,为科学研究和政策制定提供重要数据支持。

基本信息
目录编号:
61018
目录名称:
GEESAT 3-08
国际标识:
2024-159H
轨道中心:
EARTH
卫星名称:
GEESAT 3-08
卫星全名:
GEESAT 3-08
卫星状态:
在轨 (已飞行419 天)
发射日期:
2024-09-05 UTC
国别 :
中国 (CN)
星等 :
--
轨道信息
数据来源 国际轨道数据
星历时间: 2025-10-28T22:32:58+0800
16小时前
查看轨道信息
半长轴: 6978.133km
偏心率: 0.0018508
轨道倾角: 50.004°
近地点辐角 280.937°
升交点赤经 77.395°
平近点角 78.949°
近地点: 587.082km
远地点: 612.914km
周期: 96.687分钟
每日圈数: 14.893403
详细信息
使用方式:
暂无
2D轨道图
3D轨道图
轨道高度分析图
轨道倾角分析图
轨道综合分析图
查看轨道综合分析图